Home > Time Zones > World Clock > Weather > Chad > Sarh > Past weeks

Flag for Chad Weather past 2 weeks in Sarh, Chad

Now
86 °F

Haze.


Feels Like: 85 °F
Forecast: 81 / 103 °F
Wind: No wind

Location: Sarh Airport

Current Time: Mar 6, 2015 at 10:59:50 PM

Latest Report: Mar 6, 2015 at 10:00 PM


Visibility: 3 mi

Pressure: 29.83 "Hg

Humidity: 38%

Dew point: 57 °F

Location of SarhLocation

Historic Weather in Sarh — Graph

°F

Sarh temperature yesterday

Maximum temperature yesterday: 102 °F (at 1:00 PM)
Minimum temperature yesterday: 82 °F (at 11:00 PM)
Average temperature yesterday: 95 °F

Past Weeks' High & Low Weather Summary

 TemperatureHumidityPressure
High106 °F (Feb 23, 2:00 PM)56% (Mar 6, 12:00 AM)30.04 "Hg (Mar 6, 12:00 AM)
Low66 °F (Mar 6, 12:00 AM)5% (Mar 3, 1:00 PM)29.68 "Hg (Feb 20, 4:00 PM)
Average89 °F22%29.82 "Hg
* Reported Feb 19 9:00 PM — Mar 6 9:00 PM, Sarh, Weather by CustomWeather, © 2015

Note: Actual official high and low records may vary slightly from our data, if they occured in-between our weather recording intervals... More about our weather records

Advertising

Sarh weather history for previous 24 hours

 ConditionsComfort  
Time TempWeatherWind HumidityBarometerVisibility
9:00 PM
Fri, Mar 6
90 °FHaze.No wind33%29.83 "Hg3 mi
8:00 PM90 °FHaze.No wind33%29.80 "Hg3 mi
7:00 PM93 °FClear.No wind30%29.80 "Hg4 mi
6:00 PM99 °FClear.No wind24%29.77 "Hg4 mi
5:00 PM102 °FClear.5 mph16%30.04 "Hg4 mi
4:00 PM104 °FClear.5 mph12%29.74 "Hg4 mi
3:00 PM104 °FClear.5 mph14%29.77 "Hg4 mi
2:00 PM104 °FSunny.5 mph16%29.80 "Hg10 mi
1:00 PM102 °FClear.5 mph16%29.83 "Hg4 mi
12:00 PM99 °FClear.5 mph19%29.86 "Hg4 mi
9:00 AM88 °FHaze.5 mph35%29.89 "Hg2 mi
8:00 AM82 °FHaze.5 mph37%29.89 "Hg2 mi
6:00 AM79 °FHaze.No wind32%29.83 "Hg2 mi
5:00 AM77 °FClear.No wind42%29.80 "Hg4 mi
4:00 AM77 °FClear.No wind42%29.80 "Hg4 mi
3:00 AM79 °FPleasantly warm.No wind39%29.80 "HgN/A
2:00 AM82 °FHaze.No wind28%29.80 "Hg3 mi
12:00 AM66 °FClear.N/A56%29.83 "Hg10 mi
11:00 PM
Thu, Mar 5
82 °FHaze.No wind35%29.83 "Hg3 mi
Weather by CustomWeather, © 2015

See weather overviewHow to use our weather pages